Погода в Морозовске

Погода в Морозовске : погода сейчас, прогноз погоды и архив. Всё, что Вы хотите узнать о погоде в Морозовске!

Хотите узнать прогноз погоды в Морозовске? Тогда Вам сюда: Погода в Морозовске

Поиск расширенной информации на нашем сайте:

Другие новости

Новости СМИ2

Главная страница сайта

Новости сайта

03.07.2017

Напоминаем, что на нашем специализированном сайте Метеоцентр.Азия вы можете получить высокодетализированные автоматические прогнозы погоды по пунктам России, СНГ и мира в авиационном формате (включающие направление и скорость ветра, видимость, явления погоды, количество и форму облачности, нижнюю и верхнюю границу облачности).


Погода в Морозовске - сегодня

Время (UTC), дата Ветер
(°,м/с) 
Видим.   Явления Облачность Т
(°С)
Тd
(°С)
f(%) Тe
(°С)
Pmin
(гПа)
dP
(гПа)
Po
(мм)
O2
(г/м3)
Тmin Tmax R s Состояние
почвы
12 09.12.17 120 (ЮВ) 20000 м    10/0 средняя 
[Ac und]
+0.9 -2 81 -1  1021  -1  757  304           
15 09.12.17 130 (ЮВ) 20000 м    10/10 600 м 
[Sc]
+0.8 -1.3 86 -1  1020.8  -0.2  757  304    +1.5       
18 09.12.17 120 (ЮВ) 20000 м    10/10 600 м 
[Sc]
+1.1 -0.1 92 1020.1  -0.7  757  304           
21 09.12.17 160 (Ю) 20000 м  {ливн. осадки}  10/10 600 м кучево-дожд. 
[Cb calv]
+2.5 +1.5 93 +3  1019.8  -0.3  756  302           
00 10.12.17 190 (Ю) 20000 м  {ливн. осадки}  10/10 600 м 
[Sc]
+4.3 +2.1 86 +3  1019.5  -0.2  756  300           
03 10.12.17 170 (Ю) 20000 м    10/10 600 м 
[Sc]
+4.1 +0.7 78 +3  1019.2  -0.3  756  300  +0.8    0.0  мокрый или
старый снег
10-40% 
06 10.12.17 090 (В) 20000 м    9/9 1000 м 
[Sc]
+4.2 +0.6 77 +5  1019.5  0.3  756  300           
09 10.12.17 170 (Ю) 5{10}  20000 м    3/0 средняя 
[Ac lent]
+9.6 +0.9 55 +8  1018.3  -1  755  294           
12 10.12.17 150 (ЮВ) 20000 м    1/0 средняя 
[Ac lent]
+8.8 +1.4 60 +7  1016.8  -1.5  754  294           
15 10.12.17 140 (ЮВ) 7-10  20000 м    3/0 средняя 
[Ac lent]
+4.2 +0.8 79 +1  1016.5  -0.5  754  299    +10.3       
18 10.12.17 140 (ЮВ) 10-16{16}  20000 м    9/9 600 м 
[Sc]
+3.4 +1.7 89 -1  1015.6  -0.9  753  300           
21 10.12.17 140 (ЮВ) 10-14{16}  10 км    5/5 600 м 
[Sc]
+3 +1.9 92 -1  1014.5  -1.1  752  300           
00 11.12.17 150 (ЮВ) 8-11{15}  20000 м    5/5 600 м 
[Sc]
+3.9 +2.1 88 +1  1015  0.6  753  299           
03 11.12.17 190 (Ю) 10 км  слаб. ливневой дождь  10/10 600 м кучево-дожд. 
[Cb calv]
+3.9 +3 94 +2  1016.7  1.6  754  299  +2.9       
06 11.12.17 230 (ЮЗ) 6-10  20000 м  {ливн. осадки}  10/10 600 м кучево-дожд. 
[Cb calv]
+1.7 -1.1 82 -1  1020  3.2  757  303  +1.5         
09 11.12.17 230 (ЮЗ) 6-10{13}  20000 м    9/9 600 м кучево-дожд. 
[Cb calv]
+3.2 -2 69 1021.9  758  302           
12 11.12.17 230 (ЮЗ) 3{10}  20000 м    6/6 1000 м 
[Sc]
+4 -2.7 62 +3  1023  1.1  759  302           
15 11.12.17 170 (Ю) 20000 м    9/9 1000 м 
[Sc]
+0.6 -2 83 1024.9  1.8  760  306    +4.3       
18 11.12.17 180 (Ю) 20000 м    10/10 1000 м 
[Sc]
+2.2 -1 79 1024.7  -0.2  760  304           
21 11.12.17 190 (Ю) 20000 м    10/10 600 м кучево-дожд. 
[Cb calv]
+3.1 -0.3 78 +1  1024.4  -0.3  760  303           
00 12.12.17 180 (Ю) 20000 м    10/10 600 м 
[Sc]
+3.3 +0.3 81 +1  1023.6  -0.8  759  302           
03 12.12.17 180 (Ю) 20000 м  слаб. ливневой дождь  10/10 600 м кучево-дожд. 
[Cb calv]
+3.5 +2.7 94 +1  1022.9  -0.6  759  301  +0.7    0.6     
06 12.12.17 200 (Ю) 5{11}  10 км  слаб. ливневой дождь  10/10 300 м кучево-дожд. 
[Cb calv]
+4 +3 93 +2  1022.8  759  301           
09 12.12.17 200 (Ю) 10 км  слаб. ливневой дождь  10/10 300 м кучево-дожд. 
[Cb calv]
+5 +3.8 92 +3  1022.2  -0.6  758  299           
12 12.12.17 190 (Ю) 20000 м  слаб. ливневой дождь  10/10 600 м кучево-дожд. 
[Cb calv]
+6.3 +4.7 89 +5  1021  -1.2  757  298           
Время (UTC), дата Ветер
(°,м/с) 
Видим.   Явления Облачность Т
(°С)
Тd
(°С)
f(%) Тe
(°С)
Pmin
(гПа)
dP
(гПа)
Po
(мм)
O2
(г/м3)
Тmin Tmax R s Состояние
почвы

Для получения пояснительной информации подведите курсор к названию столбца.

ПОГОДА в Морозовске - архив

Всё, что Вы хотите узнать о погоде в Морозовске - удобно и подробно!

Выберите нужную дату (начиная с 1 января 2015* года) и нажмите кнопку "Найти".
Будут отображены архивные сводки погоды по пункту Морозовск, начиная с указанной даты.


Отображать данные в формате CSV (для использования в таблицах Excel)


Внимание! Наш архив погоды предназначен исключительно для личного некоммерческого использования в познавательных целях. Если Вам необходимы официальные справки о состоянии погоды (для производственных, юридических, коммерческих и т.п. целей), обращайтесь в органы Росгидромета.

*Примечание: данная дата относится к архиву по метеостанциям СССР (Россия, СНГ, Балтия).
Архив по метеостанциям Зарубежной Европы и Азии (кроме Китая) хранится 10 дней, по другим регионам земного шара (Китай, Африка, Америка, Австралия, Океания) - 1 день.

Морозовск - район местоположения метеостанции


Название, широта, долгота, высота метеостанции:
Морозовск 48.3°ш. 41.9°д. 90 м над ур. моря [Российская Федерация]

Дополнительная информация

В oтличие oт бoльшинства пoгoдных сайтoв мы публикуем пoдрoбную метеoинфoрмацию в детальнoм прoфессиoнальнoм фoрмате.

Характеристики температуры и влажнoсти вoздуха измеряются на высoте 2 м в тени вдали oт зданий и деревьев.
Скoрoсть ветра измеряется на высoте 10 м (на урoвне рoста челoвека скoрoсть ветра ниже в 1.5-2 раза). Если метеoстанция нахoдится в гoрoде или в лесу, тo скoрoсть ветра занижена на 2-4 м/с пo сравнению с oткрытым местoм. Скoрoсть ветра над акватoриями крупных рек и oзёр, а также на вершинах хoлмoв на 2-5 м/с выше, чем в oбычных услoвиях.
Атмoсфернoе давление в разных тoчках местнoсти мoжет значительнo oтличаться oт давления на метеoстанции, в зависимoсти oт услoвий рельефа (при пoдъёме на 10 м давление пoнижается примернo на 1 мм рт.ст.).